Weather History for Leesburg, FL

Change the Weather History Date:

Saturday, July 27, 2013

  Actual Average Record
Temperature  
Mean Temperature 84 °F -  
Max Temperature 93 °F 91 °F 97 °F (1998)
Min Temperature 77 °F 72 °F 69 °F (1961)
Cooling Degree Days 19    
Growing Degree Days 34 (Base 50)    
Moisture  
Dew Point 74 °F    
Average Humidity 76    
Maximum Humidity 96    
Minimum Humidity 44    
Precipitation  
Precipitation 0.00 in - - ()
Sea Level Pressure  
Sea Level Pressure 29.98 in    
Wind  
Wind Speed 2 mph (West)    
Max Wind Speed 12 mph    
Max Gust Speed -    
Visibility 9 miles    
Events      
Averages and records for this station are not official NWS values.
T = Trace of Precipitation, MM = Missing Value Source: NWS Daily Summary

Daily Weather History Graph

Daily Weather History Graph

Search for Another Location

Airport:

Trip Planner

Search our weather history database for the weather conditions in past years. The results will help you decide how hot, cold, wet, or windy it might be!

Date:

Astronomy

Jul. 27, 2013 Rise Set
Actual Time 6:45 AM EDT 8:21 PM EDT
Civil Twilight 6:19 AM EDT 8:47 PM EDT
Nautical Twilight 5:48 AM EDT 9:18 PM EDT
Astronomical Twilight 5:16 AM EDT 9:50 PM EDT
Moon 11:42 PM EDT (7/27) 11:52 AM EDT (7/27)
Length of Visible Light 14h 27m
Length of Day
13h 35m
Waning Gibbous, 71% of the Moon is Illuminated
Jul 27
Waning Gibbous
Jul 29
Last Quarter
Aug 6
New
Aug 14
First Quarter
Aug 20
Full

Hourly Weather History & Observations

Time (EDT) Temp. Heat Index Dew Point Humidity Pressure Visibility Wind Dir Wind Speed Gust Speed Precip Events Conditions
12:53 AM 77.0 °F - 75.0 °F 94% 30.02 in 10.0 mi Calm Calm - N/A   Mostly Cloudy
1:53 AM 77.0 °F - 75.0 °F 94% 30.01 in 8.0 mi Calm Calm - N/A   Partly Cloudy
2:53 AM 77.0 °F - 75.9 °F 96% 29.98 in 7.0 mi Calm Calm - N/A   Clear
3:53 AM 78.1 °F - 75.9 °F 93% 29.97 in 7.0 mi Calm Calm - N/A   Clear
4:53 AM 78.1 °F - 75.9 °F 93% 29.97 in 7.0 mi Calm Calm - N/A   Clear
5:53 AM 77.0 °F - 75.0 °F 94% 29.98 in 5.0 mi Calm Calm - N/A   Clear
6:53 AM 77.0 °F - 75.0 °F 94% 29.99 in 3.0 mi Calm Calm - N/A   Clear
7:53 AM 79.0 °F - 77.0 °F 94% 30.00 in 5.0 mi Calm Calm - N/A   Clear
8:53 AM 81.0 °F 87.9 °F 77.0 °F 88% 30.02 in 9.0 mi South 3.5 mph - N/A   Scattered Clouds
9:53 AM 82.9 °F 89.4 °F 73.9 °F 74% 30.01 in 10.0 mi West 3.5 mph - N/A   Clear
10:53 AM 84.9 °F 94.1 °F 75.9 °F 74% 30.01 in 10.0 mi Variable 4.6 mph - N/A   Clear
11:53 AM 89.1 °F 100.2 °F 75.9 °F 65% 30.00 in 10.0 mi NNW 5.8 mph - N/A   Partly Cloudy
12:53 PM 89.1 °F 98.0 °F 73.9 °F 61% 29.99 in 10.0 mi WNW 3.5 mph - N/A   Clear
1:53 PM 91.0 °F 100.4 °F 73.9 °F 57% 29.97 in 10.0 mi West 5.8 mph - N/A   Partly Cloudy
2:53 PM 89.1 °F 96.0 °F 72.0 °F 57% 29.95 in 10.0 mi WNW 3.5 mph - N/A   Mostly Cloudy
3:53 PM 91.9 °F 99.5 °F 72.0 °F 52% 29.93 in 10.0 mi Calm Calm - N/A   Mostly Cloudy
4:53 PM 91.9 °F 98.4 °F 71.1 °F 50% 29.91 in 10.0 mi West 8.1 mph - N/A   Scattered Clouds
5:53 PM 91.9 °F 97.4 °F 70.0 °F 48% 29.94 in 10.0 mi West 5.8 mph - N/A   Clear
6:53 PM 91.0 °F 93.8 °F 66.0 °F 44% 29.94 in 10.0 mi WNW 3.5 mph - N/A   Clear
7:53 PM 82.9 °F 89.4 °F 73.9 °F 74% 29.96 in 10.0 mi SE 11.5 mph - N/A   Clear
8:53 PM 81.0 °F 85.8 °F 73.0 °F 77% 29.97 in 10.0 mi SSE 5.8 mph - N/A   Partly Cloudy
9:53 PM 81.0 °F 86.7 °F 75.0 °F 82% 29.98 in 10.0 mi WNW 3.5 mph - N/A   Clear
10:53 PM 80.1 °F 83.8 °F 72.0 °F 76% 29.99 in 10.0 mi Calm Calm - N/A   Clear
11:53 PM 77.0 °F - 73.0 °F 88% 29.99 in 10.0 mi Calm Calm - N/A   Clear